Location: Catstown
(52.4386°N, 7.2633°W)
Time: 21:26:34
(UTC+00:00)

Ariane Rocket - Pass Details

Date: 18 September 2020
Orbit: 761 x 769 km, 98.7° (Epoch: 20 October)

Event Time Altitude Azimuth Distance (km) Brightness Sun altitude
Exits shadow 19:49:58 - 158° (SSE) 2,952 5.7 -11.9°
Reaches altitude 10° 19:51:36 10° 158° (SSE) 2,296 5.1 -12.1°
Maximum altitude 19:56:40 80° 72° (ENE) 784 2.9 -12.8°
Drops below altitude 10° 20:01:46 10° 346° (NNW) 2,318 6.0 -13.6°
Sets 20:04:05 0° 346° (NNW) 3,250 6.8 -13.9°
